TimeMDT,TemperatureF,Dew PointF,Humidity,Sea Level PressureIn,VisibilityMPH,Wind Direction,Wind SpeedMPH,Gust SpeedMPH,PrecipitationIn,Events,Conditions,WindDirDegrees,DateUTC
12:53 AM,27.0,17.1,66,30.15,10.0,SSE,10.4,20.7,N/A,,Clear,150,2013-03-26 06:53:00
1:53 AM,27.0,16.0,63,30.13,10.0,SE,12.7,-,N/A,,Clear,140,2013-03-26 07:53:00
2:53 AM,26.1,16.0,66,30.10,10.0,SE,11.5,-,N/A,,Clear,140,2013-03-26 08:53:00
3:53 AM,25.0,15.1,66,30.09,10.0,SE,9.2,-,N/A,,Clear,140,2013-03-26 09:53:00
4:53 AM,25.0,15.1,66,30.08,10.0,SE,8.1,-,N/A,,Clear,140,2013-03-26 10:53:00
5:53 AM,21.9,14.0,72,30.08,10.0,SE,6.9,-,N/A,,Clear,140,2013-03-26 11:53:00
6:53 AM,21.0,15.1,78,30.09,10.0,SE,9.2,-,N/A,,Clear,130,2013-03-26 12:53:00
7:53 AM,24.1,16.0,71,30.09,10.0,SSE,6.9,-,N/A,,Clear,160,2013-03-26 13:53:00
8:53 AM,28.0,17.1,63,30.08,10.0,SSE,11.5,-,N/A,,Clear,160,2013-03-26 14:53:00
9:53 AM,30.0,18.0,61,30.09,10.0,SSE,8.1,-,N/A,,Clear,150,2013-03-26 15:53:00
10:53 AM,33.1,19.0,56,30.08,10.0,SE,11.5,-,N/A,,Clear,140,2013-03-26 16:53:00
11:53 AM,37.0,21.0,52,30.06,10.0,SE,9.2,-,N/A,,Mostly Cloudy,140,2013-03-26 17:53:00
12:53 PM,42.1,21.0,43,30.04,10.0,SSW,6.9,-,N/A,,Clear,200,2013-03-26 18:53:00
1:53 PM,45.0,19.0,36,30.04,10.0,Variable,3.5,-,N/A,,Clear,0,2013-03-26 19:53:00
2:53 PM,46.9,18.0,32,30.02,10.0,Variable,3.5,-,N/A,,Scattered Clouds,0,2013-03-26 20:53:00
3:53 PM,50.0,18.0,28,30.01,10.0,Variable,3.5,-,N/A,,Clear,0,2013-03-26 21:53:00
4:53 PM,50.0,17.1,27,30.01,10.0,WNW,8.1,-,N/A,,Clear,300,2013-03-26 22:53:00
5:53 PM,50.0,17.1,27,30.03,10.0,North,9.2,-,N/A,,Clear,350,2013-03-26 23:53:00
6:53 PM,46.9,19.0,33,30.05,10.0,North,6.9,-,N/A,,Clear,10,2013-03-27 00:53:00
7:53 PM,39.0,19.9,46,30.07,10.0,NNE,9.2,-,N/A,,Clear,20,2013-03-27 01:53:00
8:53 PM,36.0,21.0,55,30.08,10.0,North,10.4,-,N/A,,Clear,360,2013-03-27 02:53:00
9:53 PM,32.0,23.0,69,30.10,10.0,NNE,5.8,-,N/A,,Clear,30,2013-03-27 03:53:00
10:53 PM,33.1,24.1,70,30.09,10.0,North,4.6,-,N/A,,Clear,360,2013-03-27 04:53:00
11:53 PM,28.0,21.9,78,30.09,10.0,NNW,4.6,-,N/A,,Clear,330,2013-03-27 05:53:00